Find Starlink 33741

NORAD ID: 63365 Int'l Des: 2025-063 Owner: SPXS Country: US Constellation: starlink operational
LEOCIRCULAR

リアルタイム位置

3D地球を読み込み中...

Starlink 33741について

説明を読み込み中...

次回通過

Passes for default location (London). Set your location on the main map for personalized predictions.

高度履歴

Loading altitude history...

軌道要素

1 63365U 25063C 26122.81485193 .00034711 00000-0 80338-3 0 9992
2 63365 53.1598 160.5326 0001249 84.7255 275.3893 15.42163590 63053
Epoch: May 2, 2026 • Age: 19 hours

現在のステータス

高度 444.2 km
速度 7.65 km/s
衛星直下点 48.21°N, 134.01°E
打ち上げ日 Mar 26, 2025
運用期間 1.1 years
タイプ internet

技術仕様

分類 Payload
質量 575.00 kg
乾燥質量 530.00 kg
総質量 575.00 kg
長さ 0.30 m
直径 4.10 m
スパン 29.00 m
形状 Box + pan
製造者 SPXS
バスタイプ Starlink V2MO
フェーズステータス In Orbit
所有者/国 SPXS/US

Most Searched